VE3DVC Weather Reports


time (UTC)temp
F
wind
direction
speed
knots
gust
knots
rain 1hr
in
rain 24hr
in
rain mn
in
humidity
%
barometer
mb
20260503210656 58 239 3.5 11.3 0.00 0.00 0.00 51 1009.4
20260503203954 57 218 2.6 7.0 0.00 0.00 0.00 55 1009.6
20260503202755 57 221 1.7 7.8 0.00 0.00 0.00 55 1009.6
20260503201555 58 244 2.6 8.7 0.00 0.00 0.00 54 1009.8
20260503200355 59 226 1.7 6.1 0.00 0.00 0.00 56 1009.7
20260503195155 58 218 0.9 7.8 0.00 0.00 0.00 57 1010.0
20260503193955 58 158 1.7 6.1 0.00 0.00 0.00 57 1010.0
20260503192755 57 198 0.9 7.8 0.00 0.00 0.00 57 1010.2
20260503191555 57 233 2.6 7.8 0.00 0.00 0.00 58 1010.1
20260503190355 57 202 1.7 8.7 0.00 0.00 0.00 57 1010.3
20260503183356 56 203 0.9 7.8 0.00 0.00 0.00 60 1010.7
20260503182156 56 215 1.7 6.1 0.00 0.00 0.00 59 1010.9
20260503180956 56 229 1.7 7.8 0.00 0.00 0.00 60 1011.0
20260503175756 56 186 0.9 4.3 0.00 0.00 0.00 62 1011.1
20260503174556 54 215 1.7 7.8 0.00 0.00 0.00 61 1011.4
20260503173356 54 216 1.7 11.3 0.00 0.00 0.00 61 1011.4
20260503171427 55 228 1.7 6.1 0.00 0.00 0.00 60 1011.6
20260503170227 54 228 1.7 7.8 0.00 0.00 0.00 60 1011.8
20260503150227 52 252 1.7 5.2 0.00 0.00 0.00 63 1012.9
20260503140227 50 235 1.7 6.1 0.00 0.00 0.00 53 1013.4
20260503131027 45 0 0.0 1.7 0.00 0.00 0.00 65 1014.1
20260503090438 33 0 0.0 0.0 0.00 0.00 0.00 91 1013.6
20260503072400 33 0 0.0 0.0 0.00 0.00 0.00 89 1014.1
20260503071200 32 0 0.0 0.0 0.00 0.00 0.00 89 1014.1
20260503053110 32 0 0.0 0.0 0.00 0.00 0.00 83 1014.8
20260503051910 32 0 0.0 0.0 0.00 0.00 0.00 84 1014.9
20260503050710 33 0 0.0 0.0 0.00 0.00 0.00 85 1015.0
20260503045510 33 0 0.0 0.0 0.00 0.00 0.00 86 1015.1
20260503044309 33 0 0.0 0.0 0.00 0.00 0.00 86 1015.0
20260503043109 33 0 0.0 0.0 0.00 0.00 0.00 86 1015.2
20260503041910 33 0 0.0 0.0 0.00 0.00 0.00 86 1015.2
20260503040710 33 0 0.0 0.0 0.00 0.00 0.00 86 1015.3
20260503035509 34 0 0.0 0.0 0.00 0.00 0.00 86 1015.2
20260503034309 34 0 0.0 0.0 0.00 0.00 0.00 86 1015.3
20260503031411 35 0 0.0 0.0 0.00 0.00 0.00 86 1015.4
20260503030212 35 0 0.0 0.0 0.00 0.00 0.00 85 1015.4
20260503025012 36 0 0.0 0.0 0.00 0.00 0.00 84 1015.5
20260503023811 36 0 0.0 0.0 0.00 0.00 0.00 83 1015.5
20260503022611 37 0 0.0 0.0 0.00 0.00 0.00 82 1015.6
20260503021411 37 0 0.0 0.0 0.00 0.00 0.00 81 1015.6
20260503020211 38 0 0.0 0.0 0.00 0.00 0.00 80 1015.5
20260503015011 39 0 0.0 0.0 0.00 0.00 0.00 78 1015.5
20260503013811 40 0 0.0 0.0 0.00 0.00 0.00 76 1015.5
20260503012611 40 0 0.0 0.0 0.00 0.00 0.00 74 1015.4
20260503004813 43 0 0.0 0.0 0.00 0.00 0.00 67 1015.3
20260503003614 43 0 0.0 0.0 0.00 0.00 0.00 64 1015.2
20260503002413 43 0 0.0 0.0 0.00 0.00 0.00 62 1015.1
20260503001214 44 0 0.0 0.0 0.00 0.00 0.00 60 1015.2
20260503000014 44 0 0.0 0.0 0.00 0.00 0.00 58 1015.2
20260502234813 44 0 0.0 0.0 0.00 0.00 0.00 58 1015.0
20260502233613 44 0 0.0 0.0 0.00 0.00 0.00 57 1015.1
20260502232414 44 0 0.0 0.0 0.00 0.00 0.00 59 1015.2
20260502231213 44 0 0.0 0.9 0.00 0.00 0.00 56 1015.1
20260502230013 45 0 0.0 1.7 0.00 0.00 0.00 57 1015.1
20260502222628 44 0 0.0 0.9 0.00 0.00 0.00 58 1015.1
20260502221429 44 0 0.0 1.7 0.00 0.00 0.00 59 1015.2
20260502215829 44 0 0.0 2.6 0.00 0.00 0.00 59 1015.2
20260502214630 44 321 0.9 3.5 0.00 0.00 0.00 58 1015.2
20260502213429 45 0 0.0 1.7 0.00 0.00 0.00 60 1015.1
20260502212229 45 0 0.0 2.6 0.00 0.00 0.00 59 1015.1